Home > Weather > Douglas > Past weeks

Flag for Isle of Man Weather for the Past 2 Weeks in Douglas, Isle of Man

Now
43 °F

Rain showers. Broken clouds.


Feels Like: 34 °F
Forecast: 40 / 43 °F
Wind: 20 mph from Southeast

Location: Isle Of Man / Ronaldsway Airport

Current Time: Feb 12, 2016 at 8:44:36 AM

Latest Report: Feb 12, 2016 at 8:20 AM


Visibility: 5 mi

Pressure: 29.33 "Hg

Humidity: 87%

Dew point: 39 °F

Location of DouglasLocation

Historic Weather in Douglas — Graph

°F

Douglas Temperature Yesterday

Maximum temperature yesterday: 45 °F (at 3:50 PM)
Minimum temperature yesterday: 34 °F (at 4:50 AM)
Average temperature yesterday: 40 °F

High & Low Weather Summary for the Past Weeks

 TemperatureHumidityPressure
High54 °F (Jan 29, 5:20 AM)100% (Jan 28, 11:50 PM)30.24 "Hg (Jan 28, 11:50 PM)
Low34 °F (Feb 11, 4:50 AM)50% (Jan 29, 9:20 AM)28.56 "Hg (Feb 8, 6:20 AM)
Average45 °F82%29.52 "Hg
* Reported Jan 28 7:20 AM — Feb 12 7:20 AM, Douglas, Weather by CustomWeather, © 2016

Note: Actual official high and low records may vary slightly from our data, if they occured in-between our weather recording intervals... More about our weather records

Advertising

Douglas Weather History for the Previous 24 Hours

 ConditionsComfort  
Time TempWeatherWind HumidityBarometerVisibility
7:20 AM
Fri, Feb 12
43 °FPassing clouds.16 mph87%29.33 "HgN/A
6:50 AM43 °FPassing clouds.16 mph87%29.33 "HgN/A
6:20 AM43 °FPartly cloudy.14 mph81%29.33 "HgN/A
5:20 AM43 °FPassing clouds.16 mph81%29.33 "HgN/A
4:50 AM43 °FPartly cloudy.17 mph87%29.33 "HgN/A
3:50 AM43 °FPassing clouds.13 mph81%29.33 "HgN/A
2:50 AM43 °FPassing clouds.15 mph81%29.36 "HgN/A
1:50 AM43 °FPartly cloudy.17 mph87%29.36 "HgN/A
12:50 AM43 °FPassing clouds.17 mph87%29.39 "HgN/A
11:50 PM
Thu, Feb 11
43 °FPassing clouds.16 mph87%29.39 "HgN/A
10:50 PM43 °FPassing clouds.18 mph87%29.42 "HgN/A
9:50 PM43 °FSprinkles. Passing clouds.17 mph81%29.45 "HgN/A
9:20 PM43 °FSprinkles. Passing clouds.14 mph81%29.45 "HgN/A
8:50 PM43 °FSprinkles. Passing clouds.10 mph81%29.45 "HgN/A
8:20 PM41 °FSprinkles. Partly cloudy.9 mph87%29.47 "Hg6 mi
7:50 PM41 °FPartly cloudy.12 mph81%29.47 "HgN/A
7:20 PM41 °FPassing clouds.9 mph87%29.50 "HgN/A
6:50 PM41 °FPassing clouds.9 mph87%29.50 "HgN/A
6:20 PM41 °FPassing clouds.7 mph81%29.50 "HgN/A
5:50 PM41 °FPassing clouds.7 mph81%29.50 "HgN/A
5:20 PM41 °FPassing clouds.8 mph81%29.53 "HgN/A
4:50 PM41 °FScattered clouds.7 mph87%29.53 "HgN/A
4:20 PM43 °FPassing clouds.8 mph76%29.53 "HgN/A
3:50 PM45 °FPassing clouds.8 mph71%29.53 "HgN/A
3:20 PM43 °FPassing clouds.6 mph76%29.53 "HgN/A
2:50 PM43 °FPassing clouds.5 mph76%29.53 "HgN/A
2:20 PM43 °FScattered clouds.8 mph81%29.53 "HgN/A
1:50 PM43 °FScattered showers. Scattered clouds.6 mph81%29.56 "HgN/A
1:20 PM43 °FScattered showers. Scattered clouds.7 mph81%29.56 "HgN/A
12:50 PM43 °FScattered showers. Scattered clouds.8 mph81%29.56 "HgN/A
12:20 PM43 °FScattered showers. Scattered clouds.8 mph81%29.56 "HgN/A
11:50 AM43 °FScattered showers. Scattered clouds.7 mph81%29.56 "HgN/A
11:20 AM43 °FScattered showers. Scattered clouds.6 mph87%29.56 "HgN/A
10:20 AM41 °FScattered showers. Scattered clouds.3 mph93%29.59 "HgN/A
9:50 AM39 °FScattered showers. Scattered clouds.5 mph87%29.59 "HgN/A
9:20 AM37 °FPassing clouds.6 mph87%29.59 "HgN/A
8:50 AM39 °FScattered showers. Passing clouds.5 mph81%29.59 "HgN/A
8:20 AM39 °FScattered showers. Passing clouds.6 mph81%29.59 "HgN/A
Weather by CustomWeather, © 2016

See weather overviewHow to use our weather pages